Total_Precipitation_Accumulation
0.05 0.11 0.32 0.54 0.97 1.74 1.63 1.02 0.51 0.30 0.29 0.36 0.42 0.45 0.50 0.52 0.69 1.12 0.78 0.53 0.31 0.40 0.47 0.54 0.54 0.44 0.43 0.53 0.58 0.61 0.66 0.64 0.62 0.61 0.63 0.67 0.62 0.56 0.54 0.55 0.53 0.55 0.57 0.50 0.46 0.44 0.40 0.42 0.42
0.08 0.18 0.42 0.62 1.32 1.83 1.35 1.14 0.44 0.26 0.22 0.32 0.39 0.42 0.47 0.47 0.30 0.40 0.59 0.51 0.34 0.38 0.36 0.33 0.41 0.42 0.44 0.53 0.60 0.76 0.76 0.71 0.65 0.66 0.63 0.57 0.55 0.52 0.49 0.51 0.52 0.55 0.51 0.46 0.40 0.37 0.33 0.34 0.34
0.10 0.22 0.42 0.61 0.99 1.10 0.75 0.58 0.27 0.24 0.26 0.30 0.37 0.39 0.41 0.51 0.34 0.40 0.45 0.35 0.31 0.32 0.33 0.36 0.41 0.40 0.49 0.58 0.65 0.71 0.62 0.57 0.58 0.63 0.60 0.58 0.56 0.54 0.51 0.50 0.49 0.50 0.47 0.42 0.35 0.33 0.32 0.33 0.36
0.11 0.21 0.32 0.47 0.50 0.54 0.45 0.32 0.21 0.18 0.22 0.29 0.32 0.34 0.45 0.42 0.29 0.41 0.45 0.45 0.31 0.27 0.30 0.35 0.40 0.44 0.49 0.49 0.53 0.59 0.59 0.53 0.55 0.56 0.58 0.59 0.57 0.58 0.52 0.45 0.43 0.43 0.43 0.40 0.37 0.34 0.33 0.34 0.42
0.11 0.25 0.36 0.37 0.31 0.40 0.38 0.29 0.23 0.16 0.15 0.28 0.38 0.51 0.60 0.45 0.32 0.47 0.51 0.56 0.43 0.33 0.37 0.37 0.46 0.50 0.50 0.46 0.49 0.50 0.52 0.53 0.56 0.55 0.53 0.53 0.51 0.52 0.49 0.41 0.37 0.37 0.38 0.36 0.36 0.35 0.38 0.42 0.47
0.13 0.25 0.27 0.24 0.24 0.31 0.29 0.21 0.19 0.18 0.22 0.27 0.39 0.63 0.75 0.61 0.42 0.46 0.59 0.53 0.53 0.52 0.52 0.51 0.57 0.55 0.54 0.51 0.51 0.48 0.47 0.48 0.45 0.44 0.46 0.44 0.41 0.46 0.49 0.47 0.38 0.35 0.36 0.33 0.33 0.34 0.40 0.47 0.53
0.12 0.18 0.16 0.14 0.18 0.25 0.24 0.18 0.17 0.15 0.18 0.29 0.36 0.68 0.90 0.97 0.71 0.58 0.69 0.78 0.86 0.78 0.65 0.61 0.68 0.67 0.62 0.68 0.62 0.55 0.49 0.48 0.47 0.45 0.46 0.44 0.40 0.40 0.43 0.50 0.46 0.39 0.42 0.40 0.38 0.37 0.42 0.48 0.56
0.05 0.08 0.12 0.12 0.10 0.18 0.20 0.18 0.15 0.16 0.18 0.26 0.34 0.55 0.90 0.86 0.62 0.67 1.01 1.15 1.36 1.24 1.00 0.87 0.78 0.71 0.68 0.66 0.65 0.62 0.56 0.50 0.50 0.49 0.45 0.48 0.47 0.45 0.49 0.46 0.50 0.49 0.53 0.56 0.52 0.49 0.49 0.51 0.54
0.04 0.05 0.09 0.09 0.07 0.10 0.12 0.14 0.14 0.13 0.17 0.34 0.47 0.56 0.74 0.66 0.60 0.72 1.32 1.51 1.62 1.52 1.34 1.09 0.89 0.84 0.82 0.70 0.65 0.73 0.69 0.63 0.64 0.65 0.61 0.74 0.87 0.75 0.80 0.67 0.74 0.72 0.74 0.78 0.77 0.79 0.78 0.74 0.66
0.03 0.03 0.04 0.04 0.04 0.05 0.09 0.14 0.13 0.15 0.30 0.66 0.88 0.86 0.82 0.75 0.85 1.08 1.47 1.50 1.68 1.76 1.50 1.29 1.10 0.94 0.84 0.73 0.84 1.06 0.88 0.89 0.98 1.06 1.06 1.27 1.47 1.44 0.94 0.95 1.19 1.24 1.30 1.28 1.28 1.29 1.11 0.96 0.91
0.02 0.03 0.02 0.02 0.02 0.03 0.06 0.12 0.14 0.18 0.53 0.96 1.27 1.08 0.95 1.02 1.10 1.36 1.73 1.92 1.92 2.05 1.81 1.57 1.31 1.08 0.97 1.05 0.94 1.08 1.23 1.32 1.34 1.35 1.35 1.51 1.42 1.22 1.06 1.17 1.42 1.65 1.70 1.60 1.77 1.83 1.50 1.56 1.80
0.02 0.02 0.01 0.01 0.01 0.03 0.06 0.09 0.14 0.24 0.49 0.69 0.86 1.02 1.11 1.26 1.51 1.72 1.78 2.01 2.08 2.14 2.04 2.00 1.62 1.43 1.52 1.38 1.10 1.02 1.07 1.19 1.37 1.60 1.57 1.63 1.82 1.72 1.65 1.72 1.76 1.86 2.05 2.30 2.22 2.39 2.24 2.17 2.03
0.01 0.02 0.01 0.01 0.01 0.03 0.05 0.08 0.17 0.32 0.43 0.53 0.85 1.19 1.43 1.46 1.75 2.01 2.06 2.32 2.19 2.13 2.17 2.19 2.03 1.83 1.89 1.70 1.50 1.28 1.39 1.41 1.47 1.60 1.75 1.69 1.91 2.07 2.07 2.02 2.00 1.88 1.96 2.12 2.31 2.36 2.69 2.81 2.44
0.00 0.01 0.01 0.01 0.02 0.04 0.08 0.12 0.23 0.37 0.53 0.72 0.94 1.21 1.51 1.76 1.97 2.05 2.38 2.59 2.57 2.42 2.45 2.30 2.24 2.24 2.21 2.12 2.09 1.99 1.75 1.80 1.73 1.69 1.69 1.73 1.95 2.19 2.31 2.16 2.13 1.99 1.95 2.11 2.29 2.45 2.94 2.95 2.76
0.00 0.02 0.03 0.04 0.05 0.07 0.11 0.26 0.43 0.55 0.63 0.78 0.99 1.12 1.45 1.95 2.22 2.23 2.44 2.59 2.55 2.84 2.84 2.85 2.81 2.94 2.88 2.72 2.57 2.37 2.20 2.06 2.02 2.07 2.07 1.96 1.98 2.18 2.21 2.04 1.94 1.99 2.12 2.30 2.32 2.45 2.76 2.52 2.52
0.02 0.08 0.11 0.11 0.10 0.10 0.17 0.47 0.59 0.67 0.67 0.86 1.06 1.23 1.51 1.80 2.15 2.29 2.50 2.69 2.78 3.10 3.22 3.39 3.40 3.39 3.26 3.24 3.15 2.90 2.67 2.51 2.35 2.29 2.31 2.14 2.05 2.07 2.23 2.04 1.89 2.20 2.27 2.35 2.57 2.71 2.72 2.67 2.68
0.05 0.07 0.09 0.12 0.10 0.09 0.16 0.41 0.52 0.69 0.91 1.07 1.25 1.41 1.44 1.71 2.03 2.38 2.65 2.98 3.27 3.58 3.81 3.96 3.96 3.82 3.57 3.59 3.55 3.39 3.22 2.90 2.55 2.40 2.30 2.14 2.06 2.13 2.39 2.37 2.46 2.52 2.57 2.60 2.47 2.78 2.81 2.70 2.71
0.04 0.06 0.08 0.12 0.11 0.10 0.21 0.46 0.58 0.75 0.98 1.04 1.30 1.46 1.55 1.64 2.08 2.53 2.73 3.14 3.63 4.11 4.50 4.31 4.18 4.35 4.23 4.05 3.88 3.59 3.14 2.74 2.61 2.54 2.35 2.20 2.18 2.25 2.60 2.46 2.46 2.55 2.70 2.74 2.68 2.72 2.72 2.46 2.43
0.04 0.06 0.09 0.12 0.11 0.14 0.27 0.53 0.79 0.89 1.16 1.12 1.15 1.30 1.46 1.60 1.89 2.31 2.61 3.17 3.79 4.16 4.55 4.70 4.68 4.55 4.33 3.91 3.56 3.30 3.07 2.91 2.66 2.49 2.40 2.27 2.14 2.24 2.58 2.48 2.65 2.60 2.61 2.62 2.64 2.68 2.54 2.17 2.36
0.04 0.07 0.10 0.15 0.15 0.19 0.37 0.59 0.89 0.89 0.98 1.04 0.95 0.99 1.18 1.55 1.80 2.33 2.62 2.83 3.30 3.82 4.28 4.56 4.70 4.58 4.18 3.75 3.51 3.35 3.29 2.92 2.62 2.58 2.60 2.43 2.44 2.44 2.45 2.57 2.54 2.57 2.68 2.59 2.54 2.60 2.43 2.05 2.19
0.06 0.07 0.10 0.10 0.14 0.27 0.40 0.79 1.06 0.96 0.91 0.94 0.93 0.99 1.17 1.63 2.07 2.33 2.52 2.68 2.96 3.35 3.66 3.78 3.93 3.89 3.72 3.72 3.70 3.61 3.54 3.08 2.93 2.91 2.88 2.72 2.68 2.63 2.60 2.57 2.46 2.40 2.27 2.30 2.36 2.36 2.35 2.22 2.11
0.08 0.07 0.06 0.07 0.14 0.34 0.40 0.86 1.30 1.15 1.01 1.06 1.12 1.07 1.35 1.68 1.71 1.87 2.18 2.49 2.66 2.89 3.24 3.47 3.53 3.48 3.38 3.46 3.47 3.33 3.11 2.92 3.01 3.26 3.23 2.96 2.71 2.50 2.27 2.16 2.20 2.18 2.06 2.06 1.85 1.93 2.07 2.05 1.88
0.07 0.06 0.06 0.09 0.16 0.33 0.42 0.65 1.19 1.24 1.25 1.14 1.16 1.27 1.49 1.52 1.46 1.57 1.77 2.08 2.19 2.50 2.79 3.04 3.31 3.39 3.32 3.35 3.27 3.25 3.12 3.11 3.14 3.08 3.03 2.78 2.54 2.20 1.89 1.81 1.88 1.87 1.79 1.72 1.67 1.80 1.72 1.66 1.64
0.05 0.06 0.12 0.19 0.31 0.66 0.52 0.53 1.00 1.18 1.03 0.97 1.07 1.10 1.29 1.30 1.31 1.49 1.65 1.87 1.99 2.15 2.26 2.40 2.61 2.88 3.03 3.06 3.03 3.05 2.98 2.96 2.89 2.75 2.58 2.36 2.16 1.88 1.62 1.49 1.60 1.70 1.73 1.68 1.65 1.73 1.63 1.62 1.72
0.06 0.10 0.39 0.74 0.98 1.03 0.56 0.60 1.06 0.93 0.74 0.75 0.94 0.99 1.05 1.03 1.01 1.23 1.36 1.47 1.61 1.73 1.83 1.95 2.15 2.47 2.61 2.57 2.56 2.68 2.73 2.75 2.65 2.59 2.41 2.17 1.89 1.59 1.53 1.53 1.58 1.63 1.71 1.61 1.63 1.68 1.72 1.82 1.86
0.08 0.10 0.34 0.62 0.75 0.82 0.67 1.02 1.46 0.98 0.76 0.80 0.84 0.85 0.83 0.80 0.77 0.93 1.14 1.35 1.41 1.45 1.57 1.70 1.93 2.15 2.22 2.14 2.26 2.47 2.55 2.64 2.52 2.53 2.28 2.02 1.81 1.69 1.72 1.67 1.55 1.52 1.61 1.53 1.72 1.65 1.68 1.84 1.83
0.09 0.08 0.14 0.28 0.37 0.60 0.84 1.14 1.19 0.74 0.65 0.74 0.76 0.77 0.84 0.81 0.75 0.82 0.90 1.07 1.12 1.18 1.30 1.44 1.78 2.05 2.12 2.11 2.23 2.35 2.43 2.42 2.33 2.21 2.05 1.86 1.87 1.81 1.91 1.84 1.71 1.61 1.66 1.78 2.00 1.94 1.93 2.08 2.02
0.10 0.11 0.16 0.22 0.37 0.60 0.81 1.11 1.26 0.89 0.72 0.53 0.49 0.53 0.51 0.53 0.54 0.61 0.66 0.76 0.88 1.10 1.36 1.50 1.62 1.89 2.01 2.02 2.04 2.07 2.24 2.20 2.09 2.02 1.87 1.73 1.64 1.68 1.82 1.94 1.88 1.79 1.80 1.95 2.09 2.09 2.22 2.34 2.28
0.13 0.12 0.14 0.17 0.21 0.41 0.81 1.04 0.84 0.70 0.59 0.54 0.50 0.54 0.47 0.40 0.41 0.49 0.62 0.76 0.92 1.07 1.24 1.34 1.39 1.53 1.67 1.75 1.87 1.87 1.88 1.95 1.98 1.86 1.69 1.63 1.60 1.63 1.70 1.86 1.93 1.87 1.86 1.98 2.03 1.98 2.22 2.32 2.30
0.14 0.12 0.13 0.17 0.17 0.26 0.47 0.68 0.55 0.61 0.60 0.52 0.54 0.60 0.60 0.56 0.50 0.54 0.72 0.88 1.00 1.13 1.15 1.16 1.20 1.32 1.47 1.63 1.82 1.92 1.93 1.96 1.92 1.74 1.60 1.59 1.61 1.68 1.74 1.84 1.86 1.76 1.77 1.91 1.94 1.99 2.19 2.27 2.16